Tracking 17925 objects as of 19-February-2017
HD Live streaming from Space Station
objects crossing your sky now

BREEZE-M DEB

Track BREEZE-M DEB now!
10-day predictions


NORAD ID: 36958
Int'l Code: 2006-006CQ
Perigee: 404.8 km
Apogee: 13,117.5 km
Inclination: 51.8 °
Period: 249.6 minutes
Semi major axis: 13132 km
RCS: 0.0224 m2 (small)
Launch date: February 28, 2006
Source: Commonwealth of Independent States (former USSR) (CIS)
Launch site: TYURATAM MISSILE AND SPACE COMPLEX (TTMTR)

Note: This is SATELLITE DEBRIS
Your satellite tracking list
Your tracking list is empty





NASA's NSSDC Master Catalog

Two Line Element Set (TLE):
1 36958U 06006CQ  17049.60521832  .00004474  00000-0  24336-2 0  9990
2 36958  51.7653 299.6471 4840319  99.6219 316.2506  5.76900317172914
Source of the keplerian elements: AFSPC